STARLINK-3830, 52363

Orbit data source: Space-Track

STARLINK-3830, 52363 is a payload satellite owned by SpaceX/Seattle (US) in LEO that was launched on Fri, 29 Apr 2022 UTC via an FALCON 9 launch vehicle from the Air Force Eastern Test Range (AFETR). Payload-class satellites include a variety of spacecraft equipped with specific instruments for various scientific and technological missions. These include communications satellites like Starlink; space stations such as the ISS; scientific satellites like the Hubble; Earth observation satellites from companies like Planet Labs, Umbra, and HawkEye 360; GPS; miniature CubeSats for education and research; and military/defense satellites.

Loading next visibility...
Identifier
52363, 2022-045AJ
Orbit
LEO
Country
Flag of USUS
Related business
Manufacturer
SpaceX/Seattle
Mission
Operational Commercial Communications
Bus & Motor
STARLINK, Unknown motor
Mass
297 kg wet, ~275 kg dry
Launch date (UTC)
2022-04-29 (4 years ago)
Launch vehicle
FALCON 9
Launch site
Air Force Eastern Test Range (AFETR)
Object type
Payload
Rocket body
Debris
Shape & HBR
Box + 1 Pan, 10.1 m
Radar Cross Section
11.087 m², Large (>1 m²)

Expand to show TLE details & history
Last TLE update: 7 hours ago

TLE from 7 hours ago
0 STARLINK-3830
1 52363U 22045AJ  26119.87042995 -.00001293  00000-0 -63181-4 0  9995
2 52363  53.2180 329.3640 0001399  84.5373 275.5779 15.08829435223519
Epoch: 2026-04-29T20:53Z
TLE epoch observation values (Epoch: 2026-04-29T20:53:25.147Z)
Latitude
-0.00001°
Longitude
158.18403°
Altitude
540.579 km
Speed
7.593 km/s
True Right ascension
21h 57m 27s
True Declination
0° 00' 00"
Sunlit
Object was in daylight at epoch
Visualization orbit readout
Latitude
Unknown
Longitude
Unknown
Altitude
Unknown
Speed
Unknown
Apparent Right ascension
Unknown
Apparent Declination
Unknown
Sunlit
N/A
Visualization observer readout
Local Sidereal Time
11:13:38
Azimuth
Unknown
Elevation
Unknown
Doppler factor
Unknown
Orbital elements
Apogee altitude
540.988 km
Perigee altitude
539.053 km
Semi-major axis
6,918.158 km
Eccentricity
0.00014
Inclination
53.218°
RAAN
329.364°
Arg. of periapsis
84.5373°
True anomaly
275.56194°
Mean anomaly
275.5779°
Eccentric anomaly
275.56992°
Mean motion
3.77188 °/min
Orbital period
95.44 mins
BSTAR
-0.000063181
Loading maneuver chart data...
Computing Atmospheric mass density...

Documentation

Showing up to 5 results
|